Location: Aulagny
(45.1643°N, 4.3096°E)
Time: 13:17:46
(UTC+00:00)

USA 238 - Pass Details

Date: 21 October 2019
Orbit: 1026 x 1186 km, 63.4° (Epoch: 11 November)

Event Time Altitude Azimuth Distance (km) Brightness Sun altitude
Rises 17:07:33 0° 184° (S) 3,762 6.8 -4.2°
Reaches altitude 10° 17:10:23 10° 175° (S) 2,823 6.0 -4.7°
Maximum altitude 17:16:12 33° 113° (ESE) 1,681 4.4 -5.7°
Drops below altitude 10° 17:22:10 10° 53° (NE) 2,909 5.5 -6.7°
Sets 17:25:06 0° 44° (NE) 3,893 6.2 -7.2°
Enters shadow 17:25:11 - 44° (NE) 3,919 6.2 -7.2°
